Wind_Speed
2 2 3 4 8 9 7 8 9 11 8 5 5 6 9 9 10 13 12 7 5 4 12 10 9 20 25 24 29 29 19 14 14 15 20 25 30 33 37 42 44 45 49 50 45 42 45 47 46 46 45 43 41 39 38 38 41 44 45 44 44 44 44 44 45 44 44 44 42 39 37 39 40 40 39 37 36 34 33 32 30 29 30 31 30 29
2 2 7 9 11 9 8 7 8 10 8 5 5 7 10 8 10 13 12 10 3 4 12 12 10 19 23 23 27 29 20 11 11 13 18 24 29 32 37 42 45 46 47 46 43 42 43 46 46 47 48 46 44 42 41 41 42 43 45 46 45 45 46 46 47 47 47 47 45 42 40 40 41 41 41 40 39 36 34 33 31 30 30 29 29 28
1 5 11 11 7 4 6 6 7 10 8 5 4 5 8 7 8 11 10 10 2 5 10 11 8 16 21 23 28 27 20 17 21 23 24 27 28 32 36 38 42 45 44 42 42 41 41 45 46 48 50 49 47 45 44 44 42 42 45 47 46 46 46 47 50 51 50 49 46 43 41 41 40 40 41 41 40 39 37 35 34 33 32 30 29 28
4 8 11 8 4 4 7 6 5 8 6 4 4 4 8 8 6 8 10 10 4 4 10 8 4 11 18 21 25 27 22 16 19 24 27 29 30 33 35 37 41 44 45 42 41 39 39 43 45 48 52 52 50 48 47 46 44 44 45 47 47 47 47 47 50 53 52 50 48 45 42 42 41 40 40 40 41 41 39 38 37 35 35 33 30 29
9 14 11 7 5 4 7 8 5 6 6 5 6 6 9 11 9 11 10 9 7 9 13 8 2 6 13 19 21 23 21 14 12 15 21 26 29 33 36 40 44 46 47 45 41 39 38 42 46 49 53 54 53 52 51 48 47 48 47 47 48 47 47 47 48 52 53 51 49 47 43 41 42 42 42 43 44 44 42 41 40 38 37 36 34 31
10 12 9 6 5 2 2 7 5 4 6 8 7 8 11 13 13 13 11 7 5 9 12 7 4 5 8 17 22 18 18 19 16 13 17 24 27 30 34 40 46 47 47 45 42 40 38 42 46 49 52 55 56 55 54 52 50 51 49 48 48 49 49 48 47 48 52 54 53 51 48 47 47 48 48 48 48 48 46 44 42 40 39 38 36 34
6 5 4 2 6 6 4 7 6 5 3 8 7 5 7 10 10 10 9 4 3 9 9 2 4 8 5 12 23 20 19 24 23 19 20 23 25 28 33 38 42 44 45 44 42 39 37 40 45 48 52 56 58 58 57 55 53 53 52 49 49 50 50 48 46 46 49 54 56 55 54 53 53 53 52 50 49 47 46 45 43 41 41 40 38 35
3 8 8 6 6 6 5 8 7 5 2 8 5 5 7 9 11 10 7 5 5 7 11 6 5 7 7 12 22 21 19 25 25 24 23 20 22 28 33 37 39 41 43 42 42 39 37 37 42 48 53 56 60 61 60 58 56 54 53 51 50 50 50 48 46 46 48 52 56 57 56 55 55 55 54 52 50 47 45 45 45 44 43 42 39 37
1 6 9 6 6 5 5 11 7 4 3 9 6 5 8 9 9 7 6 8 4 2 12 12 5 5 8 10 17 17 16 22 24 25 23 19 20 25 31 36 37 38 41 42 41 39 38 37 41 46 51 55 59 61 62 60 58 56 54 53 52 51 50 49 47 46 48 51 54 57 57 56 55 54 54 54 52 49 46 46 46 46 46 44 41 39
4 4 5 2 4 6 7 10 4 4 5 9 6 6 8 7 6 6 7 8 2 2 14 17 6 5 9 8 12 13 13 18 20 19 17 17 20 24 29 34 34 37 43 44 41 39 39 39 41 44 48 53 57 61 63 62 60 57 56 55 54 53 51 50 49 47 48 50 53 56 57 57 55 52 53 54 53 52 49 47 47 46 46 45 43 41
11 9 6 3 5 4 4 8 2 6 7 5 4 6 7 6 6 6 6 3 2 5 16 21 13 9 9 9 10 10 14 18 17 15 17 18 21 26 30 31 31 37 43 45 44 43 40 39 39 40 46 51 55 59 61 62 61 58 58 58 56 54 53 51 50 49 49 49 52 56 58 58 57 53 52 53 54 54 52 50 49 47 46 45 44 42
9 8 5 5 4 2 4 7 4 1 2 1 1 4 5 7 5 3 2 1 2 9 14 18 16 10 10 12 10 11 15 19 18 17 19 18 18 27 33 30 30 36 42 47 51 48 41 39 38 39 44 49 53 57 60 62 62 61 60 59 57 55 54 53 51 51 50 49 51 56 58 58 57 55 54 54 54 55 55 53 50 49 47 46 44 43
7 5 5 5 1 5 6 7 7 5 4 4 4 5 7 8 5 3 4 2 6 11 11 12 10 6 11 14 12 14 17 20 21 18 18 16 15 24 32 33 36 41 46 51 52 48 44 42 41 41 44 47 51 56 61 64 63 63 62 59 58 56 55 55 54 52 51 51 50 54 58 59 57 56 56 56 55 55 55 53 51 51 50 49 47 45
6 5 2 3 1 4 8 7 7 6 4 4 6 6 6 6 7 8 7 6 9 10 9 10 6 5 11 10 10 15 19 22 23 20 19 18 18 24 31 35 40 45 49 49 48 48 49 47 46 46 45 46 51 55 61 64 64 64 63 60 60 59 57 56 56 53 52 51 50 51 56 59 57 56 57 57 57 56 55 53 53 53 53 51 49 48
8 8 0 1 3 4 8 6 5 4 5 5 4 2 3 4 7 10 8 9 12 10 11 12 7 5 8 7 6 12 16 18 19 20 25 28 29 32 35 38 41 44 49 49 48 50 52 51 50 49 48 48 51 55 59 63 63 64 64 62 62 60 59 58 56 55 53 52 50 50 54 58 58 56 56 57 58 57 56 55 54 54 53 51 50 50
7 11 4 1 6 9 11 7 2 1 4 4 1 1 6 5 6 10 11 14 16 13 10 10 8 6 6 9 8 11 14 14 16 23 26 28 33 36 37 41 44 46 51 52 50 52 54 53 50 48 48 49 50 52 57 61 62 63 64 64 62 61 60 59 57 55 54 52 50 48 52 57 58 57 55 55 56 56 56 56 56 55 54 52 51 50
5 11 11 11 12 10 8 4 2 4 5 4 4 6 10 7 5 10 12 12 15 15 9 8 10 7 7 9 7 12 18 16 17 22 21 25 35 37 37 43 48 51 53 53 50 50 54 54 50 49 46 47 49 50 53 58 61 63 64 64 62 61 60 59 58 56 54 52 50 48 50 54 58 59 57 56 56 55 54 54 55 55 53 52 52 51
5 10 15 17 13 8 11 9 6 7 5 4 7 8 8 7 5 7 9 9 10 12 7 8 13 11 10 7 8 17 21 16 17 20 22 28 34 35 40 48 54 57 58 58 55 51 53 55 50 48 46 44 50 54 53 56 60 62 63 64 63 62 61 60 58 56 55 53 50 49 49 51 55 58 60 59 58 57 55 55 55 54 52 50 49 50
4 8 13 14 11 9 15 14 9 6 2 4 8 6 5 7 7 5 8 9 9 10 9 12 16 13 8 7 12 19 17 13 16 19 23 28 29 31 42 50 55 58 59 61 60 53 53 55 50 47 47 43 47 54 53 53 56 57 60 63 63 63 62 61 58 57 56 53 50 50 49 50 52 55 57 57 57 57 57 57 57 56 55 51 48 48
4 6 9 9 12 13 12 9 8 8 5 5 9 7 3 6 8 7 6 8 10 11 12 14 12 5 3 9 16 16 13 15 21 24 25 27 30 35 42 47 51 53 54 59 60 55 54 52 49 47 44 37 37 45 48 49 53 55 57 60 62 62 60 59 58 57 56 54 51 51 50 50 51 52 54 56 56 57 58 58 56 54 55 54 52 51
2 4 9 9 13 13 10 6 5 8 8 8 11 11 8 7 8 8 7 6 8 9 9 10 10 5 5 12 14 12 18 24 26 28 27 26 34 41 43 45 49 50 51 56 58 57 55 51 46 45 39 33 30 34 41 45 49 53 56 59 60 61 60 59 58 57 56 54 53 52 51 51 51 52 53 55 55 56 55 54 52 51 52 53 54 55
2 3 8 10 10 10 12 10 8 11 12 11 11 11 11 9 8 8 7 5 6 8 9 11 15 11 5 8 11 16 23 25 25 29 28 29 38 44 45 47 50 50 51 54 56 56 54 50 47 44 38 34 31 29 35 43 47 49 54 59 60 59 60 60 59 58 56 54 54 53 51 50 51 51 52 53 54 55 54 52 50 49 49 50 51 53
2 3 6 8 8 11 17 17 14 14 14 13 11 9 8 7 8 8 9 9 9 11 12 12 15 11 2 6 14 16 18 20 26 29 27 32 43 47 48 52 52 52 52 52 55 56 53 50 47 44 40 38 34 30 33 40 48 51 51 56 59 59 60 60 59 58 56 54 54 54 51 50 51 52 52 52 52 53 53 52 51 50 49 49 48 47
6 3 5 8 8 12 17 15 10 9 9 9 9 9 9 10 10 10 11 11 11 12 11 10 13 10 3 6 12 14 18 21 27 32 29 31 40 45 48 50 50 52 52 51 53 53 53 51 46 44 43 41 37 33 32 35 44 50 49 52 56 58 60 60 58 58 56 54 54 53 52 51 51 52 52 52 52 53 53 52 51 50 49 47 46 45
5 3 6 8 9 12 13 9 6 5 6 8 11 13 15 16 17 15 12 10 10 12 13 12 12 9 6 9 15 18 22 22 23 30 31 28 32 39 44 47 50 51 49 48 49 49 51 51 49 49 46 40 37 33 30 31 38 44 45 48 53 55 57 58 58 57 56 55 55 54 54 53 52 52 52 51 52 52 52 51 50 49 47 46 46 45
3 4 5 5 7 12 13 9 8 8 7 8 12 17 18 18 18 16 11 9 10 14 14 12 13 13 13 17 20 21 23 22 21 25 30 30 32 37 41 45 49 48 44 45 47 49 51 52 52 51 46 41 40 35 27 25 31 39 41 45 49 51 53 55 56 57 56 55 55 55 55 55 54 54 53 52 52 51 51 51 50 49 48 47 46 45
1 5 6 6 8 13 15 14 13 12 12 13 16 19 18 16 16 14 10 9 13 14 13 11 16 20 19 18 21 22 22 19 17 18 22 28 33 37 41 46 46 42 40 44 47 49 53 55 55 53 47 43 43 39 31 26 28 33 38 44 50 51 53 54 55 56 57 56 55 55 56 56 55 55 55 54 53 53 53 52 51 49 48 47 45 44
1 7 11 11 13 18 20 19 17 15 17 19 20 21 18 17 18 17 14 15 17 15 13 13 18 21 20 20 23 23 19 15 12 13 18 25 32 36 41 46 42 35 37 43 46 48 51 53 55 54 51 47 44 40 38 36 36 36 38 45 52 53 53 54 56 57 57 56 55 55 56 56 56 55 55 56 56 55 55 53 51 49 48 46 45 45
2 8 13 12 15 20 21 19 17 17 19 20 21 22 21 19 20 20 20 22 20 16 14 18 21 22 22 22 21 18 13 10 10 16 22 27 33 37 41 41 35 31 36 42 42 45 49 50 52 53 50 47 45 44 42 41 42 41 41 45 49 51 52 52 55 58 58 58 57 56 56 56 56 55 56 57 58 58 57 54 51 49 48 47 46 45
4 6 11 11 13 18 20 18 17 19 20 19 20 22 21 21 23 25 24 23 21 18 18 22 24 24 21 17 15 16 13 11 16 22 25 28 33 38 39 36 31 31 38 41 40 43 47 48 49 50 49 46 46 47 45 43 42 42 45 46 46 50 52 51 53 57 59 59 58 57 56 56 56 56 57 58 59 59 58 54 52 50 49 48 47 47
5 6 10 11 10 14 18 17 16 16 18 20 21 22 23 23 23 22 19 17 17 18 21 23 23 19 14 12 14 17 15 14 19 22 24 27 33 36 35 31 30 35 41 42 41 43 46 48 49 49 48 47 46 48 48 47 44 42 44 46 45 49 52 51 51 54 57 59 59 57 56 57 57 57 58 58 59 59 58 55 52 50 49 48 47 48
4 5 8 8 8 12 15 16 17 18 19 21 21 21 21 19 17 16 16 17 18 20 22 21 17 13 11 13 16 15 13 13 15 19 25 30 34 34 30 28 29 36 42 43 43 44 47 49 48 48 48 47 46 49 51 51 49 46 44 46 48 48 50 52 51 53 56 57 57 57 56 57 58 58 57 57 58 59 57 55 53 51 49 49 50 50
4 5 6 6 7 10 13 16 18 17 15 13 13 15 16 16 19 21 20 23 22 17 15 14 12 12 15 17 17 15 14 13 15 21 28 33 36 34 28 26 29 35 42 44 43 45 47 48 48 48 47 45 46 50 54 51 49 49 47 46 49 50 50 53 54 55 56 56 55 57 57 57 58 58 57 57 59 59 57 56 54 52 51 52 52 52
6 7 6 6 6 9 13 16 14 12 10 7 8 15 18 20 26 25 22 23 21 16 14 14 14 17 18 15 14 15 16 19 26 32 36 37 39 35 28 27 31 37 42 45 44 45 46 47 49 49 46 44 49 54 55 50 49 53 53 47 47 51 53 53 53 55 57 58 57 57 58 58 58 58 58 57 59 60 58 57 55 53 53 54 54 54
7 7 5 4 6 8 10 11 11 9 7 10 17 23 22 21 23 23 21 22 22 19 18 17 17 19 19 15 14 16 20 32 41 41 39 39 37 33 29 29 33 39 43 46 46 46 47 48 49 49 46 46 52 56 53 49 51 57 56 45 41 50 54 55 54 54 57 60 60 59 59 59 59 59 58 58 59 59 58 57 55 55 55 56 55 54
5 5 4 4 6 8 6 6 9 10 10 19 27 23 16 14 16 18 18 22 24 20 15 16 20 22 18 14 17 24 30 40 42 38 36 37 33 31 32 33 37 42 44 46 47 48 49 50 49 48 47 47 51 54 51 47 52 59 56 44 36 45 52 55 55 55 56 59 62 62 62 62 61 60 58 58 59 59 58 57 57 57 57 57 56 54
5 3 4 5 5 7 7 7 10 12 12 18 22 16 10 11 15 16 14 19 23 16 12 18 22 20 14 13 25 38 39 32 26 26 30 35 35 35 38 42 45 47 46 47 48 49 50 51 51 49 48 48 50 51 49 48 53 57 55 45 35 40 48 52 54 55 56 59 62 64 65 63 62 61 60 60 60 60 59 58 58 59 59 59 57 55
5 3 4 6 5 6 8 8 9 10 9 15 20 18 16 20 22 15 10 14 18 15 15 17 17 15 15 18 29 37 31 20 16 19 27 36 42 46 48 52 53 51 49 49 49 50 53 54 53 51 48 46 47 48 46 47 52 55 53 46 36 37 46 50 53 56 58 59 62 65 65 64 63 61 60 61 61 61 60 59 60 61 61 61 59 57
5 2 3 5 6 5 6 7 8 8 9 18 22 19 23 31 26 13 9 14 14 14 16 15 15 18 20 22 26 24 18 14 13 19 31 40 47 53 54 56 57 54 53 52 50 53 56 56 56 55 49 45 46 46 44 46 51 52 50 47 37 34 45 51 53 56 57 56 58 63 63 62 63 63 62 62 62 61 61 61 61 62 62 61 60 58
5 3 3 6 7 7 6 8 8 5 10 20 22 21 28 34 23 11 12 16 12 17 26 23 20 25 24 24 24 16 12 13 15 31 50 54 53 57 56 55 58 57 56 56 55 56 59 59 58 56 49 44 45 45 41 44 50 50 48 47 41 33 40 50 53 56 57 53 53 58 60 60 62 63 63 63 62 61 61 61 62 63 62 61 59 57
4 3 4 6 9 9 9 10 8 6 13 21 21 24 27 25 17 9 12 16 16 26 40 38 31 33 34 30 22 15 20 31 38 53 66 61 54 57 58 58 62 61 59 61 61 61 63 62 58 54 50 47 46 44 40 42 48 49 48 47 43 37 36 43 50 55 56 52 51 56 60 61 62 64 65 63 60 60 60 60 61 62 62 61 58 56
5 3 4 7 9 8 7 9 9 9 14 16 18 25 24 14 8 10 17 28 34 37 44 45 41 41 41 36 30 29 39 52 58 63 67 63 58 60 62 64 67 67 66 68 67 66 64 62 59 56 53 51 49 46 43 42 46 49 48 47 46 42 38 37 43 50 51 50 51 55 58 61 62 63 63 62 60 59 59 60 61 61 61 60 58 56
7 5 5 7 7 7 6 9 10 9 13 17 17 19 14 7 13 22 25 34 44 44 43 44 45 47 45 40 40 44 51 58 62 65 68 69 65 63 64 67 68 69 71 70 68 67 63 61 61 57 54 53 51 47 44 43 47 49 48 48 48 45 41 37 37 43 47 47 49 54 57 60 61 61 62 62 60 60 59 60 60 60 60 59 58 57
6 4 4 4 5 7 6 6 8 10 20 28 22 14 16 25 37 41 33 30 42 50 47 43 45 49 46 42 45 51 55 60 66 69 72 74 73 68 67 69 70 71 71 68 66 66 64 62 60 56 53 53 50 45 44 45 46 48 49 50 49 46 43 40 35 38 46 46 47 51 55 58 59 60 62 62 61 59 58 59 60 60 59 59 58 58
6 7 7 7 8 10 9 12 18 23 33 40 34 28 36 47 54 55 48 41 43 48 46 42 46 53 56 56 56 58 61 65 70 72 72 73 73 69 64 65 66 66 66 66 65 65 64 60 55 52 52 51 47 43 45 46 44 45 49 51 49 45 44 43 37 35 43 46 46 49 53 55 58 60 61 62 63 62 59 59 61 62 61 60 60 60
11 14 12 9 12 15 17 24 28 29 35 42 41 42 50 55 55 55 52 45 43 48 51 52 55 60 63 62 59 55 57 63 69 72 73 73 73 70 64 65 67 67 66 68 66 63 60 55 51 51 50 48 44 44 46 46 44 44 48 51 50 46 45 44 39 34 39 46 47 49 51 54 57 59 60 61 63 64 63 62 63 64 63 62 61 62
9 12 9 9 13 13 14 20 24 27 35 40 42 48 52 49 49 51 50 50 53 58 59 57 59 62 63 64 61 56 59 68 72 73 75 75 74 71 65 64 66 67 66 65 63 59 54 51 49 47 46 45 45 46 47 47 46 46 47 49 50 48 46 43 37 32 36 43 47 49 51 54 56 58 60 61 62 62 63 64 65 65 65 64 63 63
7 9 7 11 15 13 14 22 31 42 48 43 37 39 41 43 51 60 61 58 56 56 58 62 66 66 65 68 66 57 56 65 66 60 61 64 62 59 55 53 54 56 56 55 53 50 47 46 44 42 42 45 46 45 46 48 49 49 49 49 49 46 42 39 33 29 33 40 44 47 51 54 56 58 60 62 63 62 63 65 65 66 68 68 67 66
9 10 10 12 13 13 16 24 30 37 39 35 33 38 42 47 55 59 58 57 58 61 65 68 68 63 55 55 56 50 51 58 58 51 52 58 58 53 51 50 50 50 49 46 44 42 41 39 39 40 42 44 43 44 47 48 49 50 49 48 47 42 37 32 28 26 31 38 42 46 49 52 55 58 60 63 65 64 65 66 67 69 69 69 68 69
8 9 10 10 9 11 16 21 23 20 19 30 46 56 55 50 48 51 56 61 64 62 56 55 60 62 57 52 50 46 48 57 61 56 54 57 56 51 50 51 49 47 46 43 40 37 36 35 37 40 41 41 41 45 47 47 48 49 48 45 42 37 30 26 24 24 29 35 41 44 47 50 54 58 60 62 64 64 61 60 63 67 68 67 67 68
10 12 12 8 9 15 23 30 32 22 18 37 62 70 61 50 48 54 57 54 53 53 51 50 55 60 63 67 64 53 48 55 63 61 58 58 56 52 50 50 47 45 44 40 36 35 35 36 38 38 37 40 42 44 45 46 47 48 44 37 33 28 23 21 22 24 28 34 39 43 46 50 53 56 58 60 62 62 58 55 55 58 60 61 62 65
Wind_Direction
61 333 285 239 250 259 245 217 227 253 261 267 272 261 265 269 274 277 278 265 200 248 280 262 250 271 281 286 286 294 292 258 254 260 257 258 260 264 265 267 269 267 270 273 268 260 255 252 249 244 237 233 230 225 222 221 221 221 222 222 219 217 218 214 211 212 211 212 216 216 214 211 207 206 207 207 209 211 211 210 206 204 201 197 196 195
88 283 258 237 243 258 261 241 244 265 271 261 249 266 272 262 269 275 278 283 206 188 275 275 268 275 281 285 285 290 293 273 262 259 258 262 262 264 265 267 271 273 274 273 269 263 255 249 246 241 237 232 228 224 221 220 220 220 220 222 221 218 216 214 212 212 210 211 215 216 216 215 209 208 209 208 209 211 211 210 208 209 210 204 199 197
18 253 254 253 255 272 271 253 251 266 266 252 232 259 277 271 279 284 281 283 231 170 272 279 270 277 282 285 286 288 290 283 273 261 256 261 261 262 264 267 274 278 277 273 269 264 256 250 244 239 236 232 228 226 222 220 217 217 219 220 221 220 218 215 213 214 212 211 214 217 218 217 211 210 212 212 211 211 210 210 209 209 214 211 204 199
311 263 258 264 283 299 284 273 262 276 275 243 226 243 273 281 286 286 285 290 286 229 267 272 254 280 288 288 286 286 288 283 269 260 257 256 255 261 268 272 275 277 278 275 270 265 257 250 242 237 236 232 227 224 222 220 217 216 218 218 219 220 221 219 215 214 213 212 213 216 218 219 217 215 215 215 214 212 209 209 209 209 212 213 208 202
270 275 284 296 294 286 286 293 287 283 288 264 233 223 258 275 266 261 278 309 320 283 274 276 260 270 279 282 282 286 292 284 259 260 263 258 255 261 271 277 277 275 276 275 271 267 258 249 244 239 236 232 226 223 221 220 219 219 218 218 218 218 220 221 219 216 213 212 212 213 216 218 219 217 216 216 214 212 209 208 209 209 211 213 211 206
269 280 295 304 311 327 296 300 286 241 285 296 265 234 238 257 263 264 286 333 340 289 282 282 281 261 256 272 277 283 293 289 281 277 272 270 266 262 265 273 278 279 277 276 273 270 262 254 248 240 235 231 226 225 223 220 221 223 221 219 218 218 219 221 221 218 212 210 211 211 211 212 213 212 213 216 215 212 210 208 209 211 211 212 211 208
280 317 350 330 313 328 333 300 263 199 274 295 277 267 245 248 264 270 285 311 253 274 288 257 252 274 263 265 273 281 290 289 290 288 282 279 274 265 262 267 274 279 280 279 277 274 266 257 248 239 234 231 229 228 226 222 222 224 223 220 219 218 218 219 220 219 213 210 210 210 210 211 212 213 213 215 215 214 212 209 209 211 212 212 211 209
288 318 327 327 313 321 328 293 260 164 195 275 287 346 310 278 280 274 266 255 233 276 291 262 198 257 266 259 269 279 286 287 288 287 286 284 275 266 264 266 271 279 283 282 281 279 272 262 252 244 239 236 233 230 226 223 221 222 223 222 220 219 218 218 219 218 215 211 210 210 210 211 214 215 215 214 214 216 215 211 209 211 212 212 212 211
254 297 300 310 320 314 278 275 281 128 197 278 305 333 294 276 276 266 252 254 249 306 284 268 182 224 260 255 268 277 279 280 280 280 284 286 281 272 269 272 276 283 288 288 286 285 281 272 262 254 246 241 235 229 225 224 222 222 223 222 220 219 218 218 218 218 217 213 211 211 210 211 213 214 214 214 214 215 215 213 211 211 211 211 212 212
257 274 298 302 292 285 275 286 304 137 230 281 310 299 281 275 258 238 245 256 241 220 266 266 224 225 263 251 261 273 269 270 272 276 282 282 282 280 277 279 281 288 293 294 293 291 290 285 276 265 253 243 235 227 224 224 222 220 220 220 219 219 218 217 218 219 219 215 211 211 212 212 212 211 210 210 212 214 214 214 214 212 210 210 211 211
271 287 296 251 253 262 310 312 282 185 240 289 334 303 289 284 264 236 241 242 161 230 255 260 247 234 261 255 244 251 258 267 273 279 282 283 287 287 285 286 291 296 300 302 301 297 295 294 286 268 252 243 235 227 223 221 220 219 218 218 218 218 219 218 218 219 219 218 213 211 212 213 213 211 209 208 209 213 213 214 216 215 212 210 210 211
293 311 287 257 276 35 6 316 305 218 268 344 351 306 309 295 279 255 269 129 205 247 252 259 257 238 248 258 249 246 256 267 274 277 280 284 288 290 295 303 309 309 310 310 307 304 302 300 290 270 253 243 234 226 222 220 219 218 217 217 217 217 218 218 218 218 218 218 217 214 212 212 213 213 213 211 210 212 213 213 215 216 214 212 211 212
298 280 261 280 302 66 18 328 325 342 4 13 331 317 317 305 296 279 281 251 235 252 259 266 267 241 246 259 265 267 269 273 276 279 282 284 290 299 310 320 323 323 323 319 317 318 317 307 294 276 258 244 233 229 225 221 218 216 216 216 217 218 219 219 218 218 218 218 219 216 213 212 213 214 215 216 214 214 214 214 215 216 216 214 212 212
303 255 231 320 272 60 12 334 312 317 334 327 305 303 305 304 303 284 270 269 257 258 274 285 291 271 266 272 268 263 263 267 274 287 303 317 330 331 332 335 336 336 334 331 332 336 332 319 304 285 265 248 238 233 227 222 218 216 215 215 217 219 219 219 218 218 218 218 219 218 213 211 212 213 215 216 218 217 216 216 217 217 217 215 215 215
314 292 256 11 279 347 342 295 245 258 274 258 222 225 268 268 286 287 285 286 280 278 284 288 289 260 271 298 277 251 255 267 288 324 344 350 351 346 342 342 342 341 337 336 338 341 341 334 319 296 272 253 243 235 228 222 218 214 214 215 216 218 217 218 218 217 218 218 219 218 213 210 210 212 214 215 218 220 219 219 219 219 218 219 221 221
300 285 273 298 303 319 317 294 221 240 274 264 154 309 295 291 278 279 278 275 280 285 279 274 266 239 267 299 290 276 286 300 328 350 355 351 346 341 339 338 336 334 333 333 333 334 338 338 331 313 284 259 244 234 227 223 218 214 213 214 217 219 217 217 217 218 219 219 218 217 214 210 208 210 212 214 216 219 220 220 221 222 222 223 223 221
292 286 296 313 314 310 306 303 320 312 294 300 323 297 291 297 277 277 276 266 272 278 271 263 268 273 294 295 309 325 323 331 345 347 342 335 334 333 333 332 329 327 326 324 322 324 329 331 332 327 302 267 248 241 234 228 221 216 213 213 216 218 216 215 217 218 218 217 216 215 214 211 208 208 210 212 214 217 218 219 220 222 222 221 221 221
287 288 298 307 307 320 340 330 280 266 269 288 305 301 296 288 261 279 289 279 273 274 273 272 276 295 302 294 356 348 330 329 335 333 329 328 330 329 327 326 323 321 320 318 316 318 322 324 325 327 315 287 261 250 244 237 227 219 215 215 217 217 216 215 216 218 218 216 215 214 214 212 210 209 210 211 213 215 217 218 219 220 221 220 220 220
302 292 293 301 305 331 345 330 295 286 272 262 292 313 324 304 294 299 294 294 295 287 289 284 280 288 288 293 336 329 315 319 324 324 324 323 324 323 321 320 318 318 318 316 315 316 319 319 319 321 320 304 271 251 244 238 228 219 215 216 219 220 219 218 218 218 217 216 215 215 214 212 210 209 210 211 212 214 217 219 220 220 221 221 220 221
337 297 284 311 329 334 336 319 305 321 333 320 316 316 296 285 292 292 281 291 297 289 291 290 280 279 310 311 315 310 308 321 321 319 319 317 317 318 318 317 316 316 315 313 313 315 316 315 315 318 321 313 283 259 248 239 230 224 217 215 217 219 218 217 216 216 216 215 215 214 212 211 210 210 209 209 211 213 216 218 219 219 219 220 222 223
0 287 283 314 331 323 309 296 311 326 329 332 320 305 293 288 289 286 272 274 289 289 297 300 289 290 316 306 307 315 318 320 318 315 314 313 313 315 316 315 314 314 313 311 310 312 314 312 311 313 316 318 307 280 261 247 236 229 221 216 217 217 215 215 215 215 216 215 213 212 213 212 211 210 209 209 211 212 215 217 217 217 217 218 220 221
18 288 287 300 311 298 287 297 325 328 320 308 296 294 297 299 303 302 289 285 301 296 297 299 292 290 292 296 311 322 315 313 314 311 310 311 314 316 317 315 313 312 310 308 307 309 310 309 308 308 307 310 314 302 280 260 244 233 224 218 217 216 215 216 216 217 217 215 213 213 215 214 211 209 209 209 210 212 213 215 216 216 216 216 217 219
314 245 259 276 289 288 290 303 314 308 299 290 285 293 303 309 315 310 299 301 301 288 285 285 282 285 315 309 308 309 302 304 309 309 309 313 315 318 318 317 317 314 311 307 306 306 308 307 306 306 305 304 305 305 298 276 253 241 230 221 218 217 216 218 218 218 218 216 214 214 214 214 211 209 208 209 210 211 211 212 214 215 216 217 217 219
326 282 281 289 292 288 287 295 302 301 304 299 292 296 300 301 298 289 287 292 287 281 287 283 273 279 329 314 299 300 302 306 305 304 307 313 319 324 325 326 328 324 320 315 311 308 307 306 304 304 305 306 303 301 301 286 260 245 235 226 221 219 218 218 217 217 218 216 214 213 213 214 212 210 209 210 210 210 211 212 213 215 216 217 218 219
327 314 322 312 307 301 296 300 310 326 331 306 295 296 297 298 299 297 292 289 283 283 291 290 280 287 323 313 303 304 306 304 303 310 320 329 335 337 335 336 335 331 330 330 327 323 318 313 308 303 301 303 307 305 297 282 259 245 239 232 227 223 220 218 218 217 217 216 213 212 212 213 213 211 211 210 210 210 210 211 212 213 214 215 215 214
307 287 309 303 298 298 295 301 310 315 309 286 283 288 290 295 299 298 295 290 285 284 284 282 282 294 307 308 306 305 305 307 316 331 342 346 345 343 339 336 333 331 334 340 341 341 339 335 328 317 308 303 306 305 298 285 263 249 245 240 235 230 225 220 218 218 217 216 214 213 213 213 213 213 212 211 210 208 208 209 211 211 212 211 209 206
290 254 268 255 259 273 277 284 293 296 290 281 282 285 288 294 294 289 286 278 277 279 275 269 279 290 301 307 307 305 308 320 336 347 347 343 341 340 337 333 329 329 336 342 345 346 346 345 342 337 330 322 313 303 296 295 283 267 260 255 248 240 233 226 220 218 218 217 215 215 215 215 215 214 212 212 211 209 208 209 210 210 208 207 204 202
270 268 281 269 264 269 274 282 289 289 285 286 290 290 291 293 286 280 276 272 276 281 279 280 287 294 303 305 302 306 319 339 347 341 335 334 335 336 333 329 326 328 338 342 344 344 342 340 339 338 338 337 333 319 304 298 294 286 276 265 254 244 238 232 224 220 219 217 216 216 217 217 216 215 213 212 211 211 210 210 210 209 206 204 203 201
230 269 280 270 271 275 278 286 292 290 287 287 290 291 291 290 283 279 278 276 278 281 285 296 300 300 302 301 302 314 331 337 323 323 327 330 333 334 330 326 324 329 337 338 338 338 335 334 333 332 333 336 338 334 323 308 296 287 278 268 256 245 240 236 229 223 220 219 218 218 219 218 217 216 214 212 211 211 211 210 208 207 206 205 203 200
245 266 277 276 279 279 281 286 286 284 286 286 288 290 290 289 284 282 281 280 284 286 291 300 302 300 300 302 310 318 318 315 318 322 325 328 331 331 328 324 323 325 329 332 332 331 329 329 330 330 330 332 333 333 331 321 307 292 281 273 260 248 243 238 232 227 223 221 221 220 220 218 217 216 215 212 212 211 210 209 208 207 207 206 203 198
268 273 285 291 289 280 283 286 282 282 288 291 292 293 291 289 283 280 284 292 298 297 298 302 302 300 300 303 311 316 318 322 324 322 322 324 327 328 324 320 318 320 324 325 325 326 327 326 327 329 329 330 331 330 329 326 320 307 288 274 262 252 245 238 234 230 226 224 223 221 220 219 217 216 215 213 211 210 209 208 208 207 206 204 201 196
276 279 293 297 285 282 289 294 293 294 293 291 292 291 289 287 286 291 302 305 301 299 301 303 301 298 304 309 310 315 319 316 315 316 319 321 324 323 315 309 311 316 319 321 320 322 325 324 325 327 327 326 328 328 327 326 324 317 299 279 268 259 246 237 235 234 231 227 223 221 220 219 217 216 215 213 210 209 209 208 208 207 205 202 197 194
270 280 291 290 281 284 290 293 296 298 292 285 286 285 287 296 301 305 306 300 297 298 296 294 294 298 304 307 309 313 312 307 310 317 319 319 319 315 304 297 306 313 316 317 317 318 321 323 323 323 323 322 324 325 325 325 324 320 309 289 273 262 249 241 238 237 236 231 225 222 221 220 218 217 215 213 210 209 209 208 209 207 203 199 195 194
273 273 276 282 281 282 287 291 292 284 280 291 294 288 295 303 301 298 297 294 293 288 283 285 292 296 296 298 303 304 303 305 310 313 314 314 311 305 294 293 304 313 315 315 315 315 318 320 321 319 318 318 321 323 325 325 326 324 319 302 278 261 251 246 242 239 238 234 229 225 222 220 220 218 216 213 210 208 208 209 209 207 203 199 197 196
273 272 273 273 273 281 293 296 285 268 283 311 299 290 293 294 290 289 291 290 285 282 285 290 290 290 291 292 292 288 295 306 309 308 309 309 305 296 290 294 305 312 314 313 313 314 316 318 318 317 315 316 320 324 324 324 325 326 325 314 283 259 249 246 244 242 240 236 231 228 224 222 221 218 215 212 210 208 209 209 208 206 203 201 199 198
254 266 273 265 275 291 299 291 281 282 298 297 288 287 295 295 292 297 298 293 290 291 296 295 290 291 290 287 289 293 303 308 305 301 303 305 302 295 292 297 306 310 311 311 311 313 314 315 316 314 312 313 318 322 322 321 323 325 327 322 292 261 248 244 243 242 240 236 232 229 226 223 222 218 215 212 210 209 209 208 206 204 202 202 201 200
244 253 281 282 281 290 291 282 282 289 295 288 281 286 303 298 293 297 298 293 293 297 302 294 291 291 291 292 300 305 310 310 300 296 302 304 303 301 299 301 305 307 307 308 309 310 312 314 314 312 310 310 315 320 319 318 321 324 328 328 302 265 248 241 240 239 237 235 233 230 227 225 222 218 215 212 211 210 209 207 205 203 201 201 201 201
253 231 267 284 278 284 294 292 288 292 292 283 282 291 299 294 290 290 289 287 290 296 299 291 289 295 300 303 305 307 309 308 294 293 301 304 304 304 302 302 303 304 304 306 307 309 312 313 312 311 308 307 313 317 315 315 319 321 327 331 312 270 248 240 240 238 235 234 233 229 227 225 221 218 216 214 213 212 210 207 204 202 201 200 199 199
306 290 264 279 275 277 287 283 282 288 278 276 284 294 298 297 300 312 305 289 291 301 299 288 288 298 300 299 301 303 303 299 290 291 297 300 302 302 300 299 300 301 301 303 305 307 309 311 310 309 306 305 310 314 311 313 318 319 323 331 322 280 250 241 241 240 236 235 234 229 225 223 221 218 217 216 214 213 210 208 205 203 202 201 200 199
329 324 282 278 276 277 281 277 273 264 264 274 283 288 291 297 309 323 300 292 301 307 303 299 296 295 296 295 295 295 288 283 282 288 294 296 297 296 295 294 296 298 298 299 302 304 306 307 307 305 301 302 308 310 307 310 316 317 320 327 326 299 263 249 246 243 239 238 236 230 224 223 222 221 219 216 214 212 210 208 206 204 203 203 202 201
299 284 268 270 276 281 282 278 273 266 270 276 280 284 292 305 314 300 284 294 303 301 300 299 295 293 294 293 290 283 279 281 282 286 291 293 293 292 292 292 294 295 295 296 299 301 302 303 302 300 296 299 305 305 303 309 314 316 318 321 321 312 288 266 253 245 239 237 236 231 226 223 222 223 221 217 214 212 210 209 208 205 204 204 203 202
285 273 256 262 276 283 272 270 279 276 268 270 283 294 301 311 301 279 285 293 293 292 294 294 292 292 293 289 284 282 283 286 287 287 289 291 290 290 291 293 293 293 293 294 296 298 298 298 299 296 292 296 302 301 301 310 313 313 316 316 314 314 308 287 264 247 238 234 233 230 225 222 220 220 218 215 213 211 210 210 209 208 207 206 204 203
281 280 270 264 273 280 265 270 282 278 277 291 308 310 306 289 278 286 290 290 289 289 291 292 290 290 291 288 286 287 288 289 290 290 290 291 291 290 290 291 292 292 293 293 294 295 295 295 295 292 289 293 298 298 301 309 311 310 311 310 309 311 311 302 280 256 243 237 232 227 223 221 218 216 214 212 212 211 210 209 209 209 208 208 206 204
257 244 262 264 269 278 270 258 255 260 283 298 304 297 285 285 288 290 289 288 290 291 292 292 291 292 293 292 293 294 294 293 293 292 292 292 291 291 290 290 290 290 291 291 291 292 293 293 292 287 286 290 293 294 299 306 306 306 305 305 307 308 307 306 293 264 247 239 232 225 222 219 217 213 211 211 211 210 209 209 209 209 209 209 207 205
242 246 267 272 261 259 253 256 264 270 280 287 287 282 285 289 290 290 287 285 287 291 293 294 296 298 299 299 299 299 296 295 294 293 291 291 292 292 291 290 290 289 289 290 290 291 292 292 289 284 285 288 289 291 298 302 301 301 301 302 304 304 302 303 296 268 248 239 232 225 221 217 214 212 209 209 210 210 210 209 208 208 207 207 207 206
254 256 262 265 262 262 260 264 269 273 276 281 286 287 288 288 290 291 290 288 291 296 300 301 301 302 304 304 304 301 297 296 295 294 294 295 294 293 292 292 291 290 289 288 288 289 290 289 286 284 284 285 288 293 298 299 298 298 298 300 301 301 300 299 293 270 248 238 232 226 221 216 212 209 206 205 207 210 212 212 210 207 206 206 206 206
257 261 258 256 264 272 273 271 273 277 279 283 289 291 291 293 295 297 297 298 300 302 304 306 308 309 309 308 305 302 299 297 297 296 297 296 294 294 295 294 291 289 287 285 285 287 287 286 285 284 283 285 291 296 298 299 299 298 297 299 300 300 300 297 288 268 246 235 229 224 220 215 210 206 203 203 204 205 208 212 211 208 207 207 205 204
285 288 274 260 265 271 275 278 283 284 284 285 289 292 298 305 305 303 302 302 303 306 309 312 313 312 311 308 305 302 299 297 296 297 297 295 293 296 299 298 294 291 288 286 285 285 285 285 284 282 283 288 294 298 299 300 301 299 299 301 302 301 299 293 282 261 242 231 224 219 217 214 210 205 202 203 204 203 204 209 211 210 210 211 210 206
290 286 274 269 277 282 277 280 288 290 291 297 302 300 302 306 304 302 304 307 312 316 318 317 315 312 308 303 302 301 297 294 293 294 292 291 291 294 297 297 294 292 290 289 288 286 285 284 283 283 286 291 295 298 300 300 300 301 303 303 303 301 297 290 277 254 236 227 221 216 213 210 208 205 203 203 204 205 206 209 212 213 214 214 216 216
272 273 273 273 286 288 282 292 309 315 309 310 309 306 307 311 311 310 314 317 319 320 320 317 314 312 308 302 299 297 294 293 293 292 289 288 288 289 292 294 292 290 289 289 289 288 286 284 285 286 289 292 296 298 300 300 302 304 305 304 303 301 297 286 270 249 232 224 218 214 210 206 204 203 202 202 203 204 205 207 211 213 213 215 219 221
252 263 275 287 293 283 286 305 320 325 305 301 305 308 313 321 322 319 320 322 320 318 318 315 313 313 311 309 308 303 292 290 293 292 288 288 288 286 288 291 289 288 290 290 287 287 286 285 287 289 291 295 298 299 301 303 304 305 306 304 303 301 295 280 262 244 229 221 216 212 208 204 201 199 200 201 202 203 203 204 205 206 208 213 217 218
Height
1501 1501 1501 1500 1496 1493 1493 1494 1492 1488 1488 1492 1494 1494 1491 1489 1484 1474 1469 1468 1468 1469 1460 1457 1461 1447 1434 1427 1410 1407 1417 1417 1416 1416 1412 1411 1408 1406 1403 1398 1395 1392 1388 1387 1390 1392 1394 1396 1398 1400 1401 1403 1405 1407 1409 1411 1413 1415 1417 1419 1421 1425 1428 1430 1432 1433 1433 1436 1440 1443 1445 1446 1448 1451 1453 1455 1457 1459 1461 1463 1465 1467 1469 1471 1473 1475
1502 1502 1498 1495 1493 1491 1493 1493 1492 1489 1490 1492 1495 1494 1490 1488 1484 1473 1468 1466 1466 1469 1458 1452 1457 1446 1434 1426 1410 1404 1411 1413 1413 1411 1407 1406 1404 1401 1398 1393 1390 1386 1383 1384 1385 1386 1388 1390 1393 1394 1396 1397 1399 1402 1404 1404 1407 1410 1412 1414 1416 1420 1423 1425 1428 1429 1429 1430 1433 1437 1440 1443 1445 1447 1450 1452 1454 1456 1458 1460 1463 1465 1467 1469 1470 1472
1504 1500 1492 1490 1491 1492 1492 1491 1492 1490 1490 1493 1495 1495 1491 1486 1481 1473 1467 1464 1466 1467 1457 1452 1457 1447 1434 1425 1411 1403 1405 1407 1407 1404 1401 1401 1399 1396 1393 1389 1386 1382 1380 1380 1379 1381 1383 1384 1386 1388 1389 1391 1393 1396 1398 1399 1401 1405 1407 1409 1411 1414 1417 1420 1424 1426 1426 1426 1428 1433 1436 1439 1442 1444 1447 1449 1452 1454 1456 1457 1460 1462 1464 1466 1468 1470
1504 1494 1488 1490 1491 1491 1490 1490 1491 1489 1489 1492 1493 1494 1489 1482 1482 1477 1467 1462 1464 1463 1455 1453 1458 1450 1437 1427 1411 1400 1400 1401 1400 1397 1396 1396 1394 1391 1388 1386 1383 1378 1375 1374 1374 1376 1378 1379 1381 1382 1382 1384 1387 1390 1392 1394 1397 1399 1400 1403 1406 1408 1411 1415 1418 1421 1424 1426 1427 1430 1433 1436 1439 1442 1445 1448 1450 1451 1453 1454 1456 1459 1461 1463 1465 1467
1499 1489 1487 1490 1489 1490 1491 1489 1490 1491 1489 1487 1488 1490 1486 1480 1480 1476 1468 1466 1465 1460 1451 1452 1462 1456 1441 1430 1411 1398 1397 1396 1395 1395 1393 1392 1390 1388 1385 1381 1378 1374 1371 1369 1369 1371 1373 1374 1373 1374 1375 1377 1380 1382 1384 1387 1390 1391 1393 1397 1400 1403 1405 1409 1412 1417 1421 1424 1425 1427 1430 1433 1436 1438 1440 1442 1444 1446 1448 1450 1452 1455 1458 1460 1462 1465
1496 1490 1488 1488 1487 1489 1491 1490 1490 1492 1490 1487 1483 1482 1481 1477 1475 1473 1471 1473 1473 1464 1448 1449 1462 1455 1439 1429 1412 1399 1398 1391 1390 1392 1389 1386 1386 1385 1382 1377 1372 1369 1366 1365 1365 1366 1368 1368 1368 1369 1371 1372 1373 1375 1377 1380 1383 1385 1387 1390 1394 1397 1400 1403 1406 1411 1416 1420 1421 1421 1423 1425 1427 1429 1430 1431 1435 1440 1443 1446 1449 1452 1454 1457 1459 1462
1494 1490 1489 1489 1488 1488 1491 1491 1488 1488 1492 1489 1479 1474 1475 1474 1473 1473 1474 1475 1475 1465 1447 1446 1458 1452 1440 1429 1410 1402 1401 1390 1386 1386 1382 1380 1380 1379 1376 1373 1369 1365 1362 1361 1360 1362 1363 1364 1364 1364 1365 1365 1365 1367 1370 1374 1376 1378 1381 1384 1388 1391 1394 1397 1400 1405 1409 1413 1416 1416 1416 1417 1419 1421 1423 1426 1431 1436 1440 1444 1447 1449 1451 1453 1456 1458
1493 1491 1489 1489 1489 1489 1491 1489 1483 1485 1491 1486 1475 1473 1474 1471 1471 1471 1471 1472 1468 1461 1450 1444 1451 1452 1444 1428 1408 1404 1405 1393 1386 1382 1375 1374 1374 1373 1370 1368 1366 1362 1359 1358 1357 1358 1359 1359 1359 1358 1357 1357 1357 1360 1364 1367 1370 1373 1376 1379 1382 1385 1388 1391 1394 1398 1402 1406 1410 1412 1413 1414 1415 1416 1419 1423 1427 1432 1437 1441 1444 1446 1448 1450 1452 1455
1492 1492 1490 1490 1491 1491 1488 1483 1480 1484 1487 1480 1474 1476 1474 1471 1471 1469 1468 1467 1464 1465 1455 1440 1444 1449 1439 1423 1407 1405 1406 1397 1385 1377 1371 1369 1367 1367 1366 1364 1363 1361 1358 1356 1355 1355 1355 1356 1354 1353 1351 1351 1352 1355 1357 1360 1363 1367 1371 1373 1376 1379 1382 1385 1388 1392 1396 1400 1404 1408 1410 1411 1412 1414 1417 1420 1424 1428 1432 1437 1440 1442 1444 1446 1449 1452
1491 1492 1491 1491 1492 1489 1483 1480 1481 1484 1483 1478 1477 1476 1472 1470 1469 1467 1465 1462 1464 1468 1453 1433 1437 1442 1430 1417 1409 1406 1403 1393 1380 1373 1369 1365 1363 1364 1363 1361 1361 1361 1358 1355 1355 1354 1353 1352 1351 1349 1348 1348 1349 1351 1353 1355 1358 1362 1366 1368 1371 1374 1376 1379 1382 1385 1389 1394 1399 1403 1405 1407 1409 1412 1414 1416 1419 1423 1427 1431 1435 1438 1440 1443 1445 1448
1490 1490 1490 1489 1487 1483 1481 1480 1479 1480 1478 1477 1476 1473 1470 1467 1463 1463 1461 1461 1467 1464 1443 1426 1428 1436 1427 1410 1403 1401 1393 1382 1375 1370 1366 1362 1361 1361 1361 1361 1362 1362 1360 1357 1354 1352 1351 1351 1349 1347 1346 1345 1346 1348 1350 1352 1354 1358 1361 1363 1366 1369 1371 1374 1376 1379 1383 1387 1392 1396 1400 1403 1406 1408 1410 1411 1414 1417 1420 1425 1429 1433 1437 1439 1442 1445
1489 1489 1486 1483 1481 1481 1481 1479 1476 1477 1478 1476 1474 1472 1471 1464 1459 1460 1458 1462 1468 1454 1432 1420 1421 1432 1426 1402 1391 1391 1384 1378 1374 1370 1366 1364 1362 1361 1360 1362 1364 1363 1361 1358 1353 1351 1352 1350 1347 1344 1341 1340 1342 1343 1345 1346 1349 1352 1355 1359 1363 1365 1367 1370 1371 1373 1377 1381 1385 1389 1394 1398 1402 1404 1405 1407 1409 1411 1414 1419 1424 1429 1433 1436 1439 1442
1487 1485 1483 1480 1479 1480 1480 1480 1477 1475 1475 1474 1473 1474 1475 1468 1463 1463 1458 1458 1456 1438 1422 1419 1421 1426 1416 1393 1387 1389 1382 1378 1373 1367 1366 1365 1365 1364 1364 1365 1365 1364 1363 1360 1358 1356 1354 1350 1345 1340 1336 1335 1336 1336 1337 1339 1342 1345 1348 1353 1358 1359 1361 1364 1366 1368 1371 1374 1378 1383 1388 1393 1397 1400 1401 1403 1406 1407 1410 1414 1419 1423 1427 1431 1434 1437
1489 1480 1480 1480 1478 1479 1481 1483 1482 1476 1474 1475 1472 1473 1476 1474 1472 1467 1456 1449 1442 1428 1419 1420 1423 1421 1407 1393 1390 1387 1381 1376 1371 1368 1369 1370 1370 1370 1369 1369 1367 1366 1366 1365 1363 1360 1354 1350 1346 1340 1334 1331 1330 1329 1330 1332 1334 1338 1341 1345 1349 1352 1355 1358 1361 1363 1365 1368 1372 1377 1381 1386 1391 1395 1396 1399 1401 1404 1407 1410 1414 1418 1422 1426 1430 1433
1500 1486 1479 1480 1479 1480 1481 1481 1481 1477 1475 1474 1470 1470 1473 1474 1474 1466 1456 1449 1440 1431 1424 1423 1424 1417 1404 1395 1388 1382 1377 1373 1373 1376 1377 1376 1376 1374 1371 1368 1366 1366 1365 1363 1361 1357 1353 1351 1348 1343 1336 1331 1326 1324 1325 1326 1328 1332 1335 1338 1341 1345 1348 1352 1355 1357 1359 1363 1366 1371 1375 1380 1385 1389 1392 1394 1397 1400 1403 1406 1410 1414 1417 1422 1426 1430
1507 1490 1477 1479 1481 1481 1480 1477 1476 1477 1475 1471 1469 1472 1469 1467 1467 1460 1452 1446 1438 1433 1429 1424 1416 1404 1396 1389 1384 1382 1378 1377 1382 1384 1382 1380 1377 1374 1370 1366 1364 1363 1361 1358 1356 1353 1351 1349 1348 1345 1340 1334 1329 1325 1324 1324 1324 1326 1330 1333 1336 1339 1342 1346 1349 1352 1354 1357 1361 1364 1369 1374 1379 1384 1387 1390 1393 1395 1399 1402 1406 1410 1413 1418 1422 1426
1509 1492 1476 1478 1481 1479 1479 1477 1477 1480 1478 1473 1472 1472 1465 1460 1462 1457 1449 1441 1436 1434 1425 1415 1404 1397 1396 1390 1386 1389 1387 1386 1389 1387 1382 1380 1377 1373 1369 1364 1361 1360 1359 1357 1354 1352 1349 1347 1346 1344 1342 1338 1333 1329 1324 1322 1321 1322 1325 1329 1332 1336 1339 1342 1344 1347 1350 1352 1355 1359 1363 1367 1373 1377 1381 1384 1387 1391 1395 1398 1402 1406 1410 1414 1418 1422
1513 1500 1482 1479 1480 1478 1478 1478 1477 1478 1478 1476 1473 1469 1461 1457 1457 1456 1450 1440 1436 1430 1418 1410 1406 1403 1403 1397 1393 1398 1396 1393 1392 1387 1383 1379 1375 1371 1366 1364 1361 1357 1356 1353 1350 1349 1347 1344 1343 1341 1339 1337 1333 1327 1322 1319 1318 1319 1322 1324 1327 1331 1334 1337 1339 1342 1345 1347 1350 1353 1357 1361 1365 1370 1375 1379 1383 1387 1390 1393 1397 1401 1405 1409 1414 1418
1515 1506 1488 1478 1480 1480 1479 1479 1476 1475 1477 1477 1474 1469 1467 1465 1462 1460 1455 1445 1439 1433 1420 1412 1406 1403 1404 1401 1399 1401 1398 1395 1392 1387 1384 1379 1375 1373 1368 1364 1360 1355 1352 1347 1344 1344 1343 1341 1341 1339 1335 1332 1330 1327 1323 1320 1319 1320 1322 1323 1323 1325 1328 1331 1335 1337 1340 1343 1346 1348 1351 1355 1360 1365 1369 1374 1378 1382 1385 1388 1391 1395 1400 1405 1410 1413
1517 1512 1494 1481 1483 1485 1481 1480 1480 1478 1478 1478 1475 1472 1470 1470 1465 1461 1457 1451 1447 1440 1426 1414 1407 1405 1407 1403 1399 1399 1397 1395 1392 1385 1382 1380 1376 1374 1370 1364 1359 1354 1350 1345 1341 1340 1340 1338 1338 1337 1333 1328 1329 1331 1328 1324 1320 1318 1321 1323 1322 1323 1325 1328 1331 1333 1336 1339 1341 1344 1347 1351 1356 1360 1365 1369 1373 1376 1379 1382 1386 1390 1395 1400 1405 1408
1521 1519 1505 1491 1492 1492 1484 1481 1484 1485 1485 1485 1480 1474 1470 1465 1460 1457 1452 1447 1447 1446 1437 1428 1418 1409 1407 1402 1397 1398 1396 1392 1390 1385 1381 1378 1375 1373 1370 1365 1359 1354 1351 1346 1341 1339 1338 1336 1335 1334 1332 1327 1328 1331 1331 1328 1323 1318 1318 1319 1320 1320 1321 1324 1326 1329 1332 1335 1338 1340 1342 1347 1351 1355 1359 1364 1367 1371 1374 1378 1382 1386 1390 1394 1399 1403
1524 1525 1516 1505 1501 1495 1483 1478 1484 1488 1489 1487 1480 1472 1469 1466 1464 1465 1459 1448 1448 1450 1444 1439 1425 1406 1402 1402 1399 1399 1396 1391 1391 1387 1379 1376 1374 1372 1370 1366 1362 1358 1354 1348 1343 1340 1338 1335 1332 1331 1329 1326 1324 1326 1328 1328 1326 1321 1316 1316 1318 1318 1317 1319 1322 1325 1328 1332 1334 1336 1338 1342 1346 1350 1354 1359 1362 1366 1370 1373 1377 1381 1385 1388 1392 1396
1524 1523 1518 1509 1501 1493 1483 1480 1485 1488 1485 1483 1477 1470 1469 1470 1470 1473 1469 1456 1452 1448 1440 1438 1425 1401 1397 1402 1399 1398 1397 1394 1392 1389 1381 1376 1374 1372 1369 1366 1364 1359 1355 1350 1344 1340 1336 1332 1330 1327 1326 1324 1321 1320 1321 1323 1324 1322 1318 1316 1316 1315 1315 1316 1319 1322 1325 1328 1330 1332 1335 1338 1342 1346 1350 1354 1357 1361 1364 1367 1371 1375 1379 1383 1387 1391
1521 1516 1511 1507 1499 1489 1482 1481 1483 1484 1483 1480 1475 1470 1471 1471 1471 1472 1468 1459 1454 1446 1439 1438 1423 1399 1396 1401 1398 1396 1396 1394 1392 1389 1384 1380 1377 1374 1370 1367 1365 1360 1354 1349 1343 1338 1333 1329 1327 1325 1323 1322 1319 1317 1316 1316 1318 1320 1319 1318 1317 1314 1314 1315 1317 1319 1322 1325 1327 1330 1333 1335 1337 1341 1345 1348 1352 1355 1359 1362 1366 1369 1373 1377 1381 1385
1523 1517 1515 1519 1516 1500 1486 1485 1487 1486 1487 1483 1475 1471 1471 1469 1469 1468 1462 1458 1453 1443 1438 1437 1419 1399 1397 1399 1396 1394 1393 1391 1390 1388 1387 1386 1384 1380 1374 1368 1365 1359 1352 1346 1341 1337 1333 1329 1326 1323 1320 1319 1317 1314 1313 1312 1314 1318 1320 1319 1318 1316 1315 1314 1315 1317 1318 1321 1324 1327 1329 1331 1333 1336 1340 1343 1347 1350 1354 1357 1360 1364 1367 1371 1375 1380
1526 1523 1522 1530 1533 1519 1501 1497 1496 1493 1491 1486 1478 1474 1473 1471 1471 1468 1464 1463 1455 1440 1437 1435 1418 1400 1398 1398 1395 1394 1392 1389 1389 1390 1390 1389 1387 1384 1378 1371 1364 1357 1351 1346 1341 1337 1333 1329 1326 1322 1319 1317 1314 1312 1310 1311 1313 1317 1320 1321 1320 1320 1318 1315 1314 1314 1315 1317 1320 1322 1324 1326 1329 1331 1335 1338 1341 1345 1349 1352 1355 1359 1362 1366 1370 1375
1527 1523 1520 1524 1526 1517 1503 1497 1497 1495 1491 1485 1479 1476 1474 1473 1473 1469 1466 1463 1452 1439 1435 1431 1417 1404 1402 1402 1398 1394 1392 1392 1394 1394 1392 1388 1386 1383 1379 1372 1366 1359 1354 1348 1342 1338 1333 1330 1327 1324 1321 1318 1314 1311 1309 1309 1311 1314 1318 1320 1319 1319 1319 1317 1314 1312 1312 1314 1315 1318 1319 1321 1324 1327 1331 1334 1338 1341 1345 1348 1351 1354 1358 1362 1366 1370
1526 1522 1517 1517 1515 1505 1497 1494 1494 1493 1488 1481 1477 1475 1474 1473 1470 1466 1462 1454 1445 1441 1433 1424 1418 1413 1408 1405 1401 1396 1396 1398 1398 1395 1392 1387 1384 1381 1376 1370 1364 1360 1355 1349 1344 1339 1335 1332 1329 1326 1323 1320 1317 1314 1310 1308 1308 1309 1311 1313 1315 1315 1315 1315 1314 1311 1310 1310 1312 1313 1315 1317 1320 1324 1328 1332 1335 1338 1341 1344 1348 1351 1354 1358 1361 1365
1525 1520 1512 1511 1509 1500 1493 1492 1491 1489 1484 1479 1476 1473 1470 1469 1464 1458 1452 1444 1440 1440 1431 1422 1421 1418 1409 1403 1400 1399 1400 1400 1397 1393 1390 1385 1381 1377 1372 1366 1362 1359 1354 1349 1345 1342 1338 1336 1332 1327 1324 1320 1317 1314 1312 1309 1306 1306 1305 1306 1309 1311 1312 1314 1313 1310 1307 1307 1307 1308 1311 1314 1317 1321 1326 1329 1332 1335 1338 1342 1346 1349 1352 1355 1358 1362
1521 1516 1508 1506 1505 1497 1491 1490 1489 1486 1481 1476 1473 1469 1465 1462 1456 1448 1442 1436 1434 1433 1426 1420 1418 1413 1406 1401 1399 1399 1398 1396 1394 1390 1385 1381 1377 1373 1369 1364 1360 1356 1351 1347 1345 1343 1339 1336 1332 1327 1323 1319 1316 1313 1311 1308 1305 1305 1303 1303 1304 1306 1309 1312 1312 1309 1305 1302 1303 1305 1308 1312 1314 1317 1321 1324 1327 1331 1335 1339 1343 1346 1350 1353 1357 1361
1516 1513 1506 1504 1504 1497 1489 1487 1486 1483 1479 1473 1468 1464 1460 1454 1447 1440 1435 1432 1432 1428 1421 1418 1415 1408 1402 1398 1396 1395 1393 1392 1390 1385 1380 1377 1374 1370 1365 1361 1357 1352 1348 1345 1343 1340 1337 1333 1328 1324 1320 1316 1314 1312 1309 1306 1303 1302 1301 1300 1300 1301 1304 1307 1310 1309 1305 1299 1299 1303 1305 1307 1310 1312 1315 1319 1323 1328 1332 1336 1340 1343 1347 1351 1355 1359
1513 1511 1505 1505 1506 1496 1487 1484 1482 1479 1476 1471 1466 1460 1454 1447 1440 1437 1435 1432 1430 1426 1419 1416 1413 1405 1397 1394 1392 1390 1390 1390 1386 1380 1375 1372 1370 1367 1363 1358 1354 1349 1345 1342 1339 1337 1334 1329 1324 1319 1315 1313 1311 1310 1308 1304 1301 1298 1297 1296 1295 1296 1298 1301 1303 1307 1305 1301 1299 1300 1302 1303 1305 1307 1310 1314 1319 1324 1329 1333 1336 1340 1344 1347 1351 1355
1511 1510 1507 1507 1505 1494 1486 1483 1480 1478 1477 1472 1464 1454 1447 1444 1440 1437 1435 1429 1425 1422 1417 1412 1408 1400 1395 1393 1390 1386 1385 1383 1380 1377 1372 1367 1364 1363 1360 1355 1351 1346 1341 1338 1336 1333 1330 1325 1321 1317 1313 1311 1310 1309 1306 1302 1298 1295 1293 1291 1290 1291 1293 1293 1295 1299 1302 1303 1300 1297 1298 1300 1302 1303 1306 1310 1315 1320 1325 1330 1333 1336 1340 1343 1347 1351
1509 1508 1507 1506 1501 1493 1486 1483 1481 1481 1477 1467 1456 1446 1444 1445 1442 1437 1432 1425 1418 1415 1410 1405 1401 1397 1393 1390 1387 1384 1381 1377 1374 1373 1371 1367 1361 1357 1354 1351 1347 1342 1337 1334 1331 1329 1326 1323 1319 1315 1312 1309 1307 1305 1302 1298 1294 1290 1287 1284 1284 1285 1285 1285 1287 1291 1295 1299 1299 1297 1295 1296 1298 1300 1303 1307 1311 1316 1320 1325 1329 1333 1337 1340 1343 1346
1508 1508 1507 1504 1499 1491 1485 1484 1486 1482 1470 1458 1447 1440 1441 1443 1437 1431 1426 1419 1412 1408 1405 1401 1397 1393 1388 1384 1382 1380 1377 1372 1368 1366 1366 1364 1358 1353 1349 1347 1344 1339 1334 1330 1326 1324 1322 1319 1316 1312 1309 1305 1301 1298 1296 1292 1288 1284 1279 1276 1276 1276 1277 1278 1280 1283 1288 1292 1294 1294 1293 1292 1294 1296 1300 1304 1308 1311 1316 1320 1325 1330 1333 1337 1340 1343
1506 1507 1505 1501 1495 1489 1487 1489 1487 1475 1464 1455 1442 1434 1436 1438 1431 1426 1421 1411 1403 1402 1402 1399 1392 1387 1383 1380 1378 1375 1372 1368 1360 1356 1358 1357 1353 1350 1346 1342 1340 1337 1332 1327 1322 1318 1316 1315 1313 1310 1306 1302 1297 1293 1290 1287 1284 1280 1273 1267 1267 1267 1269 1271 1272 1274 1279 1283 1286 1288 1288 1288 1289 1292 1296 1300 1304 1307 1312 1316 1320 1325 1329 1333 1338 1342
1502 1503 1502 1499 1494 1490 1490 1489 1480 1470 1465 1456 1439 1431 1435 1435 1429 1425 1421 1409 1398 1398 1400 1395 1386 1382 1380 1378 1374 1369 1366 1362 1351 1343 1347 1350 1346 1345 1342 1336 1334 1332 1327 1323 1318 1314 1312 1310 1309 1307 1303 1299 1295 1290 1286 1283 1279 1277 1270 1262 1260 1261 1262 1264 1265 1266 1270 1273 1275 1278 1281 1283 1285 1287 1291 1296 1299 1303 1307 1311 1316 1320 1325 1329 1334 1338
1498 1499 1499 1500 1495 1490 1491 1490 1483 1480 1473 1453 1433 1428 1431 1430 1423 1421 1421 1409 1395 1394 1396 1390 1383 1381 1378 1375 1371 1363 1361 1359 1344 1330 1335 1341 1338 1336 1334 1329 1327 1324 1320 1318 1313 1309 1307 1305 1303 1302 1299 1296 1292 1288 1284 1281 1277 1274 1268 1261 1258 1259 1259 1258 1258 1259 1262 1264 1266 1269 1273 1276 1280 1282 1286 1290 1294 1299 1302 1307 1311 1315 1319 1324 1328 1333
1496 1496 1496 1498 1495 1492 1496 1495 1487 1481 1467 1444 1428 1425 1426 1423 1417 1417 1417 1405 1389 1387 1390 1386 1381 1379 1375 1370 1367 1361 1359 1356 1338 1320 1323 1332 1331 1329 1326 1320 1318 1316 1313 1311 1309 1304 1300 1298 1297 1295 1294 1291 1288 1285 1282 1279 1274 1270 1265 1260 1258 1257 1255 1253 1252 1253 1255 1257 1261 1265 1268 1272 1275 1277 1280 1283 1288 1294 1299 1303 1307 1311 1316 1321 1325 1330
1496 1496 1495 1496 1494 1492 1494 1490 1480 1470 1453 1435 1426 1425 1422 1418 1417 1421 1418 1399 1383 1381 1382 1378 1375 1373 1369 1365 1362 1358 1355 1349 1333 1314 1313 1322 1323 1321 1320 1314 1310 1309 1305 1302 1301 1298 1294 1292 1290 1288 1287 1286 1284 1281 1280 1276 1270 1265 1261 1257 1255 1254 1252 1251 1250 1251 1251 1254 1258 1261 1265 1269 1272 1273 1275 1278 1283 1290 1296 1300 1304 1308 1312 1317 1323 1328
1495 1495 1494 1492 1488 1488 1490 1484 1473 1459 1441 1427 1424 1422 1420 1418 1418 1421 1414 1394 1381 1378 1375 1372 1368 1364 1362 1360 1355 1350 1343 1337 1327 1312 1306 1312 1312 1310 1310 1308 1303 1302 1299 1295 1293 1291 1287 1284 1282 1281 1279 1279 1278 1276 1275 1272 1265 1260 1256 1252 1250 1250 1250 1250 1250 1250 1250 1252 1254 1255 1258 1263 1268 1270 1272 1276 1280 1286 1293 1298 1302 1305 1309 1314 1320 1325
1493 1493 1492 1488 1485 1484 1482 1478 1470 1452 1429 1421 1422 1418 1418 1423 1419 1411 1399 1388 1381 1375 1369 1367 1362 1356 1355 1352 1347 1341 1332 1324 1319 1310 1301 1302 1303 1299 1298 1297 1293 1291 1290 1287 1286 1285 1282 1277 1274 1273 1271 1270 1271 1268 1266 1264 1258 1253 1251 1248 1246 1247 1247 1247 1247 1248 1249 1250 1250 1251 1253 1257 1263 1268 1271 1274 1278 1282 1288 1294 1299 1303 1307 1312 1316 1321
1487 1490 1491 1485 1481 1479 1475 1474 1469 1445 1417 1414 1421 1416 1413 1418 1412 1399 1390 1382 1377 1370 1364 1360 1354 1349 1347 1342 1336 1332 1324 1314 1309 1303 1294 1291 1292 1291 1289 1287 1284 1280 1278 1278 1276 1276 1276 1271 1266 1264 1263 1262 1262 1261 1259 1257 1252 1247 1246 1244 1243 1244 1243 1242 1242 1243 1244 1246 1247 1248 1250 1253 1258 1265 1269 1272 1275 1278 1283 1289 1295 1300 1304 1309 1313 1318
1482 1486 1488 1481 1476 1476 1472 1464 1453 1431 1409 1412 1422 1418 1410 1407 1401 1394 1387 1376 1367 1364 1360 1353 1345 1340 1339 1335 1329 1325 1317 1307 1299 1294 1286 1279 1278 1282 1281 1277 1275 1271 1268 1268 1267 1265 1267 1265 1260 1258 1257 1256 1256 1255 1253 1252 1248 1243 1241 1239 1239 1240 1239 1237 1237 1237 1237 1239 1241 1243 1246 1249 1254 1260 1265 1268 1272 1276 1280 1284 1289 1295 1300 1304 1309 1313
1477 1476 1479 1476 1468 1465 1458 1444 1429 1419 1411 1413 1418 1414 1406 1399 1394 1390 1383 1371 1362 1359 1355 1348 1340 1334 1332 1331 1327 1321 1313 1302 1291 1285 1279 1271 1267 1270 1271 1267 1265 1263 1259 1258 1257 1256 1257 1256 1253 1251 1250 1249 1250 1249 1248 1247 1245 1240 1236 1234 1234 1235 1233 1231 1231 1230 1230 1232 1235 1238 1242 1246 1250 1254 1260 1265 1267 1270 1275 1279 1283 1288 1294 1298 1303 1308
1469 1469 1471 1468 1457 1450 1443 1431 1422 1417 1412 1409 1411 1409 1402 1394 1388 1382 1375 1367 1360 1356 1352 1347 1341 1334 1330 1328 1323 1316 1307 1297 1285 1276 1272 1266 1259 1259 1262 1260 1256 1255 1253 1249 1247 1247 1248 1247 1246 1244 1242 1242 1243 1242 1240 1239 1238 1235 1231 1229 1228 1228 1226 1225 1224 1223 1224 1226 1229 1232 1237 1241 1245 1248 1254 1261 1264 1264 1267 1272 1277 1281 1286 1291 1297 1302
1465 1468 1467 1461 1453 1447 1438 1424 1417 1412 1406 1405 1405 1399 1392 1389 1384 1377 1372 1367 1360 1355 1351 1347 1340 1334 1329 1324 1319 1313 1303 1291 1281 1273 1267 1259 1249 1246 1252 1252 1246 1243 1242 1239 1238 1239 1240 1239 1238 1237 1235 1234 1234 1234 1232 1230 1229 1229 1226 1223 1221 1220 1219 1217 1216 1216 1217 1219 1222 1226 1230 1234 1239 1242 1247 1255 1261 1262 1262 1266 1271 1275 1278 1283 1289 1295
1463 1466 1462 1454 1448 1443 1433 1420 1413 1405 1397 1401 1405 1396 1389 1387 1379 1369 1365 1363 1359 1354 1349 1343 1337 1332 1326 1316 1310 1307 1298 1282 1274 1271 1262 1249 1240 1238 1242 1242 1237 1233 1231 1229 1230 1233 1232 1231 1231 1231 1229 1227 1226 1225 1225 1222 1220 1220 1219 1216 1214 1212 1211 1209 1209 1209 1211 1213 1216 1219 1223 1227 1233 1238 1242 1247 1255 1259 1258 1259 1264 1268 1270 1273 1280 1287
1463 1461 1455 1448 1444 1438 1426 1416 1410 1396 1382 1384 1395 1395 1392 1389 1378 1366 1359 1354 1350 1347 1342 1334 1326 1323 1321 1314 1305 1300 1290 1274 1266 1266 1258 1243 1235 1234 1234 1233 1231 1228 1225 1224 1224 1226 1226 1226 1225 1225 1223 1221 1220 1219 1218 1215 1212 1210 1210 1208 1205 1204 1203 1202 1202 1204 1206 1208 1211 1213 1218 1223 1227 1233 1237 1242 1247 1253 1254 1254 1257 1261 1264 1269 1276 1282
1459 1454 1448 1447 1445 1436 1421 1412 1413 1408 1391 1378 1377 1379 1383 1385 1377 1365 1357 1350 1344 1340 1337 1328 1316 1306 1303 1302 1300 1298 1287 1268 1257 1257 1251 1238 1232 1230 1228 1226 1225 1222 1222 1222 1221 1221 1222 1222 1221 1220 1218 1216 1215 1214 1211 1208 1205 1202 1201 1200 1198 1197 1196 1195 1196 1198 1201 1204 1207 1209 1214 1219 1223 1228 1233 1237 1242 1248 1252 1254 1256 1259 1263 1268 1273 1279
1453 1448 1446 1447 1442 1431 1419 1413 1419 1422 1410 1389 1374 1370 1375 1379 1373 1362 1357 1352 1344 1336 1332 1326 1315 1302 1289 1279 1278 1284 1282 1265 1251 1247 1241 1231 1226 1225 1223 1220 1220 1218 1217 1218 1218 1218 1218 1218 1217 1216 1214 1211 1210 1208 1204 1201 1198 1195 1194 1193 1192 1191 1191 1190 1191 1193 1196 1199 1203 1206 1211 1216 1220 1225 1229 1233 1238 1243 1249 1252 1255 1259 1264 1268 1272 1277